OE3CJB-13 Weather Reports


Display with metric or nautical units.
time (UTC)temp
F
wind
direction
speed
MPH
gust
MPH
rain 1hr
in
rain 24hr
in
rain mn
in
humidity
%
barometer
mb
20210922014523 53 0.0 0.0 0.00 0.00 0.00 98 1019.7
20210922013051 53 0.0 0.0 0.00 0.00 0.00 97 1019.7
20210922011551 53 0.0 0.0 0.00 0.00 0.00 97 1022.1
20210922010035 53 0.0 0.0 0.00 0.00 0.00 97 1023.1
20210922004523 54 0.0 0.0 0.00 0.00 0.00 97 1024.0
20210922003051 54 0.0 0.0 0.00 0.00 0.00 96 1024.8
20210922001552 54 0.0 0.0 0.00 0.00 0.00 94 1024.8
20210922000036 54 0.0 0.0 0.00 0.00 0.00 93 1025.8
20210921234551 54 0.0 0.0 0.00 0.00 0.00 92 1028.1
20210921233058 54 0.0 0.0 0.00 0.00 0.00 92 1028.2
20210921231551 54 0.0 0.0 0.00 0.00 0.00 91 1029.0
20210921230035 54 0.0 0.0 0.00 0.00 0.00 90 1029.1
20210921224552 54 0.0 0.0 0.00 0.00 0.00 89 1028.4
20210921223057 54 0.0 0.0 0.00 0.00 0.00 89 1026.8
20210921221551 54 0.0 0.0 0.00 0.00 0.00 89 1026.2
20210921220100 54 0.0 0.0 0.00 0.00 0.00 90 1027.0
20210921214522 54 0.0 0.0 0.00 0.00 0.00 88 1028.5
20210921213057 54 0.0 0.0 0.00 0.00 0.00 88 1028.6
20210921211552 54 0.0 0.0 0.00 0.00 0.00 87 1027.7
20210921210035 55 0.0 0.0 0.00 0.00 0.00 87 1026.9
20210921204552 55 0.0 0.0 0.00 0.00 0.00 86 1025.4
20210921203058 55 0.0 0.0 0.00 0.00 0.00 86 1023.9
20210921201552 55 0.0 0.0 0.00 0.00 0.00 87 1021.5
20210921200037 55 0.0 0.0 0.00 0.00 0.00 90 1021.5
20210921194522 55 0.0 0.0 0.00 0.00 0.00 94 1023.8
20210921193058 55 0.0 0.0 0.00 0.00 0.00 94 1023.1
20210921191552 55 0.0 0.0 0.00 0.00 0.00 95 1023.9
20210921190052 55 0.0 0.0 0.00 0.00 0.00 96 1024.7
20210921184551 55 0.0 0.0 0.00 0.00 0.00 96 1024.8
20210921183551 55 0.0 0.0 0.00 0.00 0.00 95 1025.5
20210921181554 55 0.0 0.0 0.00 0.00 0.00 95 1024.5
20210921180035 56 0.0 0.0 0.00 0.00 0.00 94 1025.3
20210921174552 56 0.0 0.0 0.00 0.00 0.00 94 1025.3
20210921173057 56 0.0 0.0 0.00 0.00 0.00 92 1026.1
20210921171552 56 0.0 0.0 0.00 0.00 0.00 91 1025.9
20210921170034 57 0.0 0.0 0.00 0.00 0.00 90 1026.5
20210921164551 58 0.0 0.0 0.00 0.00 0.00 90 1027.2
20210921163057 58 0.0 0.0 0.00 0.00 0.00 89 1027.2
20210921161551 59 0.0 0.0 0.00 0.00 0.00 86 1027.2
20210921160052 59 0.0 0.0 0.00 0.00 0.00 84 1028.0
20210921154551 60 0.0 0.0 0.00 0.00 0.00 81 1028.1
20210921153057 60 0.0 0.0 0.00 0.00 0.00 79 1027.4
20210921151552 61 0.0 0.0 0.00 0.00 0.00 75 1026.6
20210921150034 61 0.0 0.0 0.00 0.00 0.00 75 1026.5
20210921144551 61 0.0 0.0 0.00 0.00 0.00 74 1027.4
20210921123057 61 0.0 0.0 0.00 0.00 0.00 74 1023.6
20210921121551 61 0.0 0.0 0.00 0.00 0.00 76 1023.6
20210921120033 61 0.0 0.0 0.00 0.00 0.00 76 1023.8
20210921114552 61 0.0 0.0 0.00 0.00 0.00 75 1024.5
20210921113057 61 0.0 0.0 0.00 0.00 0.00 77 1024.5
20210921111552 60 0.0 0.0 0.00 0.00 0.00 77 1024.5
20210921110034 60 0.0 0.0 0.00 0.00 0.00 80 1027.7
20210921104551 60 0.0 0.0 0.00 0.00 0.00 79 1027.7
20210921103057 60 0.0 0.0 0.00 0.00 0.00 80 1029.2
20210921101551 61 0.0 0.0 0.00 0.00 0.00 82 1029.3
20210921100033 61 0.0 0.0 0.00 0.00 0.00 83 1030.7
20210921094551 60 0.0 0.0 0.00 0.00 0.00 83 1030.8
20210921093057 60 0.0 0.0 0.00 0.00 0.00 85 1029.1
20210921091551 59 0.0 0.0 0.00 0.00 0.00 87 1029.2
20210921090034 58 0.0 0.0 0.00 0.00 0.00 90 1029.1
20210921084551 57 0.0 0.0 0.00 0.00 0.00 90 1029.8
20210921083057 56 0.0 0.0 0.00 0.00 0.00 94 1031.2
20210921081551 55 0.0 0.0 0.00 0.00 0.00 95 1031.9
20210921080033 55 0.0 0.0 0.00 0.00 0.00 98 1030.3
20210921050052 51 0.0 0.0 0.00 0.00 0.00 99 1027.0
20210921044607 51 0.0 0.0 0.00 0.00 0.00 99 1027.6
20210921043101 51 0.0 0.0 0.00 0.00 0.00 99 1028.2
20210921040034 51 0.0 0.0 0.00 0.00 0.00 99 1028.2
20210921034553 51 0.0 0.0 0.00 0.00 0.00 99 1028.2
20210921033057 51 0.0 0.0 0.00 0.00 0.00 99 1027.5
20210921030033 51 0.0 0.0 0.00 0.00 0.00 99 1025.8
20210921024552 51 0.0 0.0 0.00 0.00 0.00 99 1025.9
20210921023057 51 0.0 0.0 0.00 0.00 0.00 99 1026.5
20210921020052 52 0.0 0.0 0.00 0.00 0.00 99 1027.2